Flag for U.S.A. Weather past 2 weeks in Paradise, California, U.S.A.

Now
72 °F

Clear.


Feels Like: 76 °F
Forecast: 74 / 96 °F
Wind: 6 mph from Southeast

Location: Oroville Municipal Airport

Current Time: Jul 31, 2015 at 6:59:07 AM

Latest Report: Jul 31, 2015 at 5:53 AM


Visibility: 10 mi

Pressure: 29.95 "Hg (28.17 "Hg at 527m altitude)

Humidity: 57%

Dew point: 56 °F

Location of ParadiseLocation

Historic Weather in Paradise — Graph

°F

Paradise temperature yesterday

Maximum temperature yesterday: 102 °F (at 5:53 PM)
Minimum temperature yesterday: 72 °F (at 5:53 AM)
Average temperature yesterday: 88 °F

Past Weeks' High & Low Weather Summary

 TemperatureHumidityPressure
High108 °F (Jul 29, 3:53 PM)78% (Jul 23, 5:53 AM)30.10 "Hg (Jul 23, 5:53 AM)
Low59 °F (Jul 23, 5:53 AM)9% (Jul 29, 2:53 PM)29.66 "Hg (Jul 17, 7:53 PM)
Average82 °F39%29.88 "Hg
* Reported Jul 16 5:53 AM — Jul 31 5:53 AM, Paradise, Weather by CustomWeather, © 2015

Note: Actual official high and low records may vary slightly from our data, if they occured in-between our weather recording intervals... More about our weather records

Advertising

Paradise weather history for previous 24 hours

 ConditionsComfort  
Time TempWeatherWind HumidityBarometerVisibility
5:53 AM
Fri, Jul 31
72 °FClear.6 mph57%29.95 "Hg10 mi
4:53 AM74 °FClear.7 mph53%29.93 "Hg10 mi
3:53 AM76 °FClear.7 mph50%29.93 "Hg10 mi
2:53 AM78 °FClear.7 mph46%29.92 "Hg10 mi
1:53 AM80 °FClear.8 mph47%29.92 "Hg10 mi
12:53 AM82 °FClear.9 mph44%29.91 "Hg10 mi
11:53 PM
Thu, Jul 30
85 °FClear.6 mph37%29.90 "Hg10 mi
10:53 PM91 °FClear.7 mph30%29.90 "Hg10 mi
9:53 PM93 °FClear.3 mph30%29.90 "Hg10 mi
8:53 PM93 °FSunny.8 mph28%29.87 "Hg10 mi
7:53 PM96 °FSunny.9 mph28%29.85 "Hg10 mi
6:53 PM100 °FSunny.9 mph25%29.84 "Hg10 mi
5:53 PM102 °FSunny.6 mph23%29.84 "Hg10 mi
4:53 PM101 °FSunny.6 mph25%29.86 "Hg10 mi
3:53 PM101 °FSunny.5 mph24%29.88 "Hg10 mi
2:53 PM99 °FSunny.7 mph24%29.90 "Hg10 mi
1:53 PM95 °FSunny.5 mph29%29.93 "Hg10 mi
12:53 PM93 °FSunny.3 mph26%29.96 "Hg10 mi
11:53 AM91 °FSunny.3 mph25%29.97 "Hg10 mi
10:53 AM89 °FSunny.3 mph31%29.98 "Hg10 mi
9:53 AM83 °FSunny.3 mph37%29.97 "Hg10 mi
8:53 AM79 °FSunny.7 mph45%29.97 "Hg10 mi
7:53 AM75 °FSunny.6 mph50%29.97 "Hg10 mi
6:53 AM73 °FClear.3 mph50%29.95 "Hg10 mi
Weather by CustomWeather, © 2015

See weather overviewHow to use our weather pages